Wenatchee, WA

9:20 AM PDT on October 23, 2017 (GMT -0700)
Pangborn Memorial

Weather History for KEAT - December, 2011

Change the Weather History Date:

Saturday, December 17, 2011

  Actual Average Record
Temperature  
Mean Temperature 30 °F 25 °F  
Max Temperature 31 °F 31 °F 52 °F (1998)
Min Temperature 29 °F 19 °F -12 °F (1964)
Degree Days  
Heating Degree Days 35 40  
Month to date heating degree days 622 657  
Since 1 July heating degree days 1953 2539  
Cooling Degree Days 0 0  
Month to date cooling degree days 0 0  
Year to date cooling degree days 631 249  
Moisture  
Dew Point 26 °F    
Average Humidity 85    
Maximum Humidity 92    
Minimum Humidity 78    
Precipitation  
Precipitation T in 0.08 in 0.33 in (2015)
Month to date precipitation T 1.41  
Year to date precipitation 6.21 15.96  
Snow  
Snow 0.00 in 0.50 in - ()
Month to date snowfall 8.4  
Since 1 July snowfall 16.3  
Snow Depth -    
Sea Level Pressure  
Sea Level Pressure 30.35 in    
Wind  
Wind Speed 0 mph (WNW)    
Max Wind Speed 5 mph    
Max Gust Speed 7 mph    
Visibility 9 miles    
Events      
T = Trace of Precipitation, MM = Missing Value Source: NWS Daily Summary

Daily Weather History Graph

Daily Weather History Graph

Search for Another Location

Airport or City:

Trip Planner

Search our weather history database for the weather conditions in past years. The results will help you decide how hot, cold, wet, or windy it might be!

Date:

Astronomy

Dec. 17, 2011 Rise Set
Actual Time 7:42 AM PST 4:10 PM PST
Civil Twilight 7:07 AM PST 4:46 PM PST
Nautical Twilight 6:27 AM PST 5:25 PM PST
Astronomical Twilight 5:50 AM PST 6:03 PM PST
Moon No Moon Rise 11:32 AM PST (12/17)
Length of Visible Light 9h 39m
Length of Day
8h 28m
Waning Gibbous, 52% of the Moon is Illuminated
Dec 17
Waning Gibbous
Dec 17
Last Quarter
Dec 24
New
Dec 31
First Quarter
Jan 8
Full

Hourly Weather History & Observations

Time (PST) Temp. Windchill Dew Point Humidity Pressure Visibility Wind Dir Wind Speed Gust Speed Precip Events Conditions
12:55 AM 30.9 °F - 26.1 °F 82% 30.49 in 6.0 mi Calm Calm - N/A   Haze
1:55 AM 30.9 °F - 26.1 °F 82% 30.48 in 8.0 mi Calm Calm - N/A   Overcast
2:55 AM 30.0 °F - 26.1 °F 85% 30.47 in 9.0 mi Calm Calm - N/A   Overcast
3:55 AM 30.0 °F - 26.1 °F 85% 30.46 in 8.0 mi Calm Calm - N/A   Overcast
5:55 AM 30.0 °F - 25.0 °F 82% 30.45 in 9.0 mi Calm Calm - N/A   Overcast
6:55 AM 28.9 °F - 26.1 °F 89% 30.45 in 6.0 mi Calm Calm - 0.00 in   Overcast
7:55 AM 28.9 °F 25.2 °F 25.0 °F 85% 30.45 in 9.0 mi WSW 3.5 mph - N/A   Overcast
8:23 AM 28.4 °F - 24.8 °F 86% 30.40 in 8.0 mi Calm Calm - N/A   Overcast
8:55 AM 30.0 °F - 26.1 °F 85% 30.45 in 8.0 mi Calm Calm - N/A   Overcast
9:31 AM 30.2 °F - 26.6 °F 86% 30.40 in 9.0 mi Calm Calm - N/A   Overcast
9:55 AM 30.0 °F - 26.1 °F 85% 30.44 in 9.0 mi Calm Calm - N/A   Overcast
10:55 AM 30.0 °F - 26.1 °F 85% 30.43 in 10.0 mi Calm Calm - N/A   Overcast
11:55 AM 30.9 °F - 26.1 °F 82% 30.38 in 10.0 mi Calm Calm - N/A   Overcast
12:55 PM 30.9 °F - 26.1 °F 82% 30.36 in 10.0 mi Calm Calm - N/A   Overcast
1:55 PM 30.9 °F - 26.1 °F 82% 30.33 in 10.0 mi Calm Calm - N/A   Overcast
2:55 PM 30.9 °F - 26.1 °F 82% 30.31 in 10.0 mi Calm Calm - N/A   Overcast
3:55 PM 30.9 °F 27.5 °F 26.1 °F 82% 30.29 in 10.0 mi West 3.5 mph - N/A   Overcast
4:55 PM 30.9 °F - 26.1 °F 82% 30.26 in 10.0 mi Calm Calm - N/A   Overcast
5:55 PM 30.9 °F - 26.1 °F 82% 30.24 in 9.0 mi Calm Calm - N/A   Overcast
6:55 PM 30.0 °F - 27.0 °F 88% 30.21 in 8.0 mi Calm Calm - 0.00 in   Overcast
7:55 PM 30.0 °F - 27.0 °F 88% 30.18 in 10.0 mi Calm Calm - N/A   Overcast
8:55 PM 30.0 °F - 26.1 °F 85% 30.16 in 10.0 mi Calm Calm - N/A   Overcast
10:55 PM 30.0 °F 26.5 °F 26.1 °F 85% 30.12 in 10.0 mi North 3.5 mph - N/A   Overcast
11:55 PM 30.0 °F - 26.1 °F 85% 30.11 in 10.0 mi Calm Calm - N/A   Overcast